Theta_e
308 309 310 311 311 312 311 311 311 311 310 309 308 309 309 312 318 319 325 327 327 322 326 331 330 329 328 329 333 336 345 346 344 345 343 342 342 342 341 342 343 341 339 342 341
309 309 311 311 312 312 312 311 311 312 312 310 309 309 309 316 324 325 325 324 321 320 325 329 329 329 329 331 335 339 344 342 340 341 343 342 342 343 343 344 345 344 342 341 339
309 310 311 312 312 312 312 312 313 315 315 312 310 310 310 319 335 329 323 322 320 320 325 326 326 332 338 335 336 340 342 339 340 341 341 341 341 343 345 346 345 344 343 338 331
309 311 312 312 313 313 313 313 315 315 315 313 310 310 312 324 336 329 320 320 320 321 324 326 335 337 338 339 338 339 339 340 341 341 340 342 342 344 344 346 343 343 339 333 329
309 311 313 313 313 314 314 314 315 316 317 314 311 310 317 332 333 324 322 322 321 321 324 328 338 339 341 338 336 338 339 340 340 340 342 343 345 346 345 344 343 341 337 332 329
310 312 313 313 314 314 314 314 316 316 318 313 311 311 326 330 328 324 324 324 323 325 326 330 335 337 340 340 339 339 341 341 341 341 342 345 345 345 346 344 344 342 337 332 331
310 312 313 314 314 314 314 315 316 316 315 314 312 313 326 329 328 325 326 325 325 326 328 331 334 336 336 341 344 345 340 338 340 341 344 344 346 346 345 345 344 342 340 334 332
311 312 314 314 314 314 315 315 317 316 315 317 314 322 331 326 327 325 326 326 326 326 327 331 332 335 340 335 339 345 345 348 341 342 342 338 346 346 345 345 343 343 341 337 334
311 313 314 314 314 314 315 316 319 317 317 317 319 326 331 324 327 327 327 328 328 328 328 329 334 340 340 341 341 342 351 350 344 340 343 344 350 347 345 344 344 343 343 340 338
312 313 314 314 315 314 316 320 321 318 323 321 325 326 328 326 327 327 328 328 329 329 329 331 336 338 343 340 345 337 343 344 343 341 340 343 349 348 344 344 345 344 344 342 340
312 313 314 314 315 314 317 322 324 327 325 325 325 328 329 329 327 327 328 327 329 329 329 332 336 337 338 343 337 336 336 339 337 339 336 340 344 350 345 343 344 343 346 340 341
312 314 314 315 315 316 318 322 321 321 323 325 324 327 326 328 328 328 328 327 328 329 330 331 332 333 332 332 333 336 338 337 339 340 336 342 341 348 346 344 342 343 342 341 341
313 314 314 314 315 319 321 321 320 321 324 326 323 325 327 326 329 329 329 329 329 329 331 331 331 332 332 333 336 334 336 337 336 335 339 342 342 344 345 344 342 341 342 340 340
313 314 314 314 318 321 322 320 320 321 328 324 322 324 327 326 327 330 329 329 329 330 330 330 330 332 332 336 335 338 335 336 338 341 347 342 342 348 346 344 343 343 342 342 341
313 314 314 314 317 321 321 319 320 323 337 325 323 326 326 326 329 329 329 329 329 330 331 330 331 332 333 336 335 333 334 338 340 344 346 346 346 349 348 348 346 344 342 340 340
313 314 314 319 321 323 320 320 322 330 337 326 325 325 325 326 328 329 329 329 330 330 331 329 332 332 333 335 334 334 338 341 342 344 355 347 345 347 348 340 335 344 342 340 339
313 314 313 314 320 321 320 323 330 335 330 326 325 324 324 324 327 327 328 328 329 331 331 332 330 332 334 334 337 337 343 344 350 346 351 342 340 342 335 333 334 336 342 339 337
313 314 314 316 320 320 322 327 333 333 331 327 325 324 325 325 325 326 328 328 329 330 331 331 332 336 335 335 335 337 338 343 343 340 341 340 341 342 338 337 335 335 336 340 338
313 317 320 323 324 320 324 332 333 334 331 330 326 324 325 326 326 326 328 329 330 330 334 333 338 337 335 335 333 338 340 338 341 340 341 337 341 341 339 339 338 337 336 338 340
313 319 323 325 322 321 326 330 329 330 328 329 329 326 326 327 326 328 328 329 331 331 334 334 338 336 336 334 333 333 335 340 341 347 347 341 340 341 341 337 338 339 338 337 340
314 324 326 324 321 324 327 328 328 325 326 330 332 330 329 329 328 329 329 330 331 332 332 332 337 336 337 336 337 338 339 345 343 341 343 338 340 340 343 341 341 338 339 339 339
319 326 326 322 322 325 326 326 316 325 326 328 328 333 333 331 330 331 330 331 331 332 332 333 338 340 336 336 335 335 338 341 343 346 343 342 339 338 342 340 338 338 338 337 338
325 325 326 321 324 327 325 324 323 326 327 328 329 331 332 333 331 331 332 333 332 331 338 339 341 338 336 336 337 338 338 338 341 347 347 345 341 338 342 341 340 341 337 336 336
325 324 326 324 324 328 329 325 323 325 325 328 332 332 333 333 331 333 330 331 332 332 334 338 347 341 337 338 335 336 338 336 340 343 343 336 335 344 343 344 340 339 338 335 337
325 326 330 327 323 326 328 329 326 326 326 330 332 333 333 335 332 331 332 332 331 334 333 336 337 335 334 332 334 335 337 337 337 340 341 335 332 343 343 341 339 338 340 338 337
325 324 326 330 330 325 324 328 327 325 327 328 331 333 332 335 337 340 340 342 333 338 333 347 341 336 337 334 335 336 335 335 333 333 331 331 334 336 338 336 339 342 340 335 337
322 324 330 325 330 328 327 326 328 327 327 328 331 334 333 339 337 337 337 338 339 340 345 347 345 347 341 335 335 337 335 334 333 332 332 338 338 340 340 340 337 334 333 334 336
Wind_Speed
17 17 19 21 22 22 22 23 22 21 19 17 16 16 17 17 6 5 9 2 3 3 7 8 11 13 16 17 10 17 2 8 13 16 11 13 15 17 14 17 18 10 11 11 10
16 18 20 22 23 24 24 25 24 22 20 17 16 15 16 12 6 13 6 6 2 5 7 10 13 12 12 11 9 11 3 3 11 16 16 15 17 12 12 15 15 13 12 11 14
17 19 20 22 24 26 26 27 26 25 20 15 13 13 14 7 8 6 9 7 4 7 8 16 15 15 16 10 8 13 6 14 13 13 13 11 16 15 15 11 12 12 13 14 12
18 19 20 23 24 27 28 29 27 24 16 12 11 11 11 2 2 7 10 8 6 5 11 18 6 4 13 21 18 14 13 14 11 15 13 17 14 7 14 14 10 14 13 13 12
18 19 20 23 25 27 30 28 28 20 16 11 9 9 5 7 6 8 10 7 6 7 13 16 2 8 10 15 12 10 10 11 13 13 13 14 14 10 12 11 11 12 12 11 11
17 19 20 23 25 28 30 26 29 17 13 9 7 8 4 9 4 10 9 7 10 12 19 16 10 13 17 12 9 10 12 10 10 11 8 15 13 9 9 9 10 10 10 9 10
17 18 20 23 25 28 29 25 24 13 7 8 7 5 8 8 3 9 10 10 10 11 12 10 15 4 6 16 25 25 10 21 8 12 13 10 5 8 12 12 10 9 9 8 9
16 17 20 23 26 29 26 25 22 12 6 10 7 2 7 4 5 8 9 11 8 11 13 13 9 11 19 7 9 3 8 8 12 15 15 14 8 11 13 13 11 11 8 9 7
15 17 20 23 26 28 25 26 20 7 6 7 4 6 9 8 8 10 11 11 8 9 9 9 12 15 24 14 8 14 7 15 14 7 18 11 5 17 16 15 13 13 9 11 10
15 17 20 22 25 25 24 24 15 8 4 4 12 6 10 11 14 9 12 12 6 8 8 9 0 1 10 8 10 4 5 8 13 10 6 13 12 18 18 15 14 14 12 13 11
15 17 19 22 24 20 25 16 7 5 9 10 10 14 5 12 11 9 10 9 10 9 13 15 10 10 13 24 17 15 17 15 10 4 4 8 10 20 18 14 10 10 14 10 10
15 17 19 22 23 16 16 10 9 8 9 14 14 21 10 9 10 13 13 7 11 12 17 14 7 5 9 8 11 18 6 7 7 0 4 6 4 20 19 14 12 11 9 9 11
14 16 20 22 22 14 9 7 10 9 6 14 11 12 11 8 14 17 15 14 14 13 18 11 14 9 11 10 12 7 14 16 10 7 8 11 16 12 15 15 13 13 13 9 12
14 16 19 24 12 17 13 9 11 7 5 11 10 9 9 13 14 20 20 15 14 17 20 8 15 5 12 13 8 0 8 13 16 17 10 22 5 13 12 10 12 13 13 14 15
13 16 17 19 16 10 11 12 10 4 5 13 15 7 11 15 15 18 24 18 19 19 19 14 11 6 13 1 11 12 10 12 18 11 6 16 8 10 11 13 16 15 13 12 13
14 16 19 9 12 13 14 14 9 6 5 8 10 9 11 15 15 13 14 17 17 17 19 14 4 6 13 9 8 9 6 5 6 3 5 18 12 6 10 4 3 18 14 13 11
15 17 19 17 10 16 16 12 6 7 5 10 12 14 14 13 18 10 15 16 15 13 16 16 14 7 3 15 9 19 17 2 3 5 4 2 9 9 11 9 3 1 16 14 10
16 20 20 19 15 15 13 8 7 3 3 6 3 10 12 11 14 13 14 17 18 22 16 10 5 11 7 15 9 7 1 6 8 11 7 6 4 4 4 5 4 2 1 17 15
18 16 11 14 10 7 7 8 9 13 9 6 7 6 11 13 12 15 15 17 20 20 17 15 5 13 11 14 5 2 2 9 11 14 13 2 7 6 14 8 7 3 2 6 13
13 14 19 9 4 7 6 12 9 4 5 7 10 9 10 12 9 14 14 16 19 21 17 14 3 14 16 13 13 12 9 11 5 3 9 14 8 5 13 9 5 6 5 4 9
8 5 6 6 5 6 9 6 2 5 4 7 11 5 11 8 11 12 8 13 16 17 11 10 7 2 6 5 12 11 14 6 2 2 5 7 9 6 17 11 14 6 6 7 9
7 7 9 7 6 8 10 8 3 6 2 4 5 9 10 11 2 6 3 1 6 13 5 9 4 11 14 4 8 4 13 7 2 6 12 14 1 7 2 11 7 17 3 7 8
4 10 7 8 6 9 6 5 3 4 3 3 3 3 4 7 3 10 5 8 10 4 6 6 5 8 14 16 10 6 17 4 6 6 11 12 3 7 8 18 18 22 29 3 2
5 6 4 6 10 11 4 6 8 7 6 5 9 4 6 6 3 5 5 5 6 2 3 4 6 9 12 16 14 7 13 9 8 4 18 10 13 14 14 13 16 15 25 6 9
5 6 3 6 10 10 5 6 7 6 8 5 5 10 6 4 5 7 8 8 7 4 1 1 6 11 16 19 21 11 19 18 16 16 14 13 16 16 12 12 15 19 12 7 5
5 4 2 6 6 10 6 8 8 7 5 10 8 11 1 8 7 10 14 11 3 8 7 6 6 11 15 17 10 11 19 21 7 10 13 14 13 14 8 3 7 23 4 13 17
12 12 6 7 7 7 10 10 8 6 2 13 9 5 7 8 8 10 7 5 6 5 7 7 6 9 14 6 11 9 15 10 9 10 10 10 14 14 13 17 15 14 11 12 13
Wind_Direction
354 356 355 353 355 356 355 351 349 344 337 332 328 329 332 325 274 245 234 213 218 238 206 281 263 268 271 257 98 73 70 244 122 163 110 87 81 73 60 74 90 144 149 117 78
350 350 349 352 354 353 353 349 345 340 332 325 323 327 333 328 271 242 221 221 225 196 222 245 288 298 271 261 88 110 177 79 96 98 96 82 106 116 107 98 98 94 97 104 83
344 347 347 351 353 350 351 347 342 337 325 317 318 324 335 330 268 206 180 200 191 212 268 300 297 358 322 52 32 107 99 71 57 64 92 100 88 106 112 92 105 122 103 97 99
339 344 346 349 350 347 347 345 343 344 335 314 311 320 333 312 274 124 164 153 189 221 272 271 40 10 273 40 356 75 61 63 60 48 67 94 105 71 106 116 116 94 108 104 91
337 339 344 345 347 344 344 343 342 340 337 318 306 318 331 237 261 159 158 176 219 225 254 276 79 233 112 87 312 78 86 88 71 69 93 85 84 91 91 96 97 120 126 107 114
333 336 340 341 343 342 341 339 339 337 334 322 308 320 264 259 88 162 158 191 240 228 257 254 253 203 124 141 193 87 50 105 111 103 101 96 118 127 129 132 136 154 123 123 102
330 333 336 337 340 340 338 336 341 340 353 325 310 337 264 287 182 178 195 217 236 263 298 323 341 290 12 92 55 7 13 325 154 122 126 113 180 124 151 170 167 148 148 122 123
328 331 332 336 339 339 334 331 332 318 299 328 292 286 280 152 213 193 203 231 254 266 278 308 297 301 84 89 66 308 351 308 155 151 112 109 259 150 168 190 165 164 159 165 126
325 329 330 336 338 338 331 325 324 306 297 303 288 219 261 161 197 206 215 238 227 264 286 309 294 70 33 317 292 174 211 233 148 162 160 163 178 195 186 197 174 174 163 176 170
322 327 329 333 336 336 328 324 305 287 290 256 269 255 240 219 179 191 229 257 236 266 257 238 80 128 155 193 276 100 36 194 122 153 182 222 158 159 185 209 178 175 184 169 195
318 324 329 330 333 331 328 317 308 193 242 253 208 235 167 135 144 201 217 242 249 262 262 234 184 254 166 208 257 47 46 357 323 98 286 274 154 168 179 204 205 172 184 192 188
316 324 329 328 326 316 306 350 15 326 302 271 267 217 304 160 198 210 185 225 236 257 262 278 269 265 346 326 335 20 54 224 250 237 296 251 221 161 168 191 200 191 226 193 150
315 326 329 326 321 300 313 357 330 331 266 244 220 225 214 228 236 200 192 212 246 250 271 303 283 33 306 307 15 324 323 321 352 325 213 263 257 166 162 179 197 201 189 226 159
317 326 330 331 306 321 292 347 342 358 273 158 199 220 194 197 227 213 198 220 236 263 270 265 287 356 289 41 151 14 258 304 354 343 30 339 327 156 161 181 193 204 203 194 172
314 320 320 324 295 306 343 326 338 284 261 148 182 167 203 210 210 224 197 219 240 250 272 287 302 341 334 187 315 327 2 53 4 2 68 288 293 124 154 197 205 201 206 203 168
308 314 316 320 286 268 323 319 291 240 221 147 148 202 213 205 225 204 216 209 243 262 274 273 298 294 305 315 303 326 79 74 300 304 61 256 240 133 200 148 308 185 188 197 169
302 303 300 294 273 325 322 295 238 252 152 141 175 182 206 196 224 213 198 215 226 238 255 256 258 240 327 286 36 306 345 337 268 224 188 297 289 84 60 53 52 119 171 168 163
299 296 286 270 272 294 304 266 258 298 130 77 227 182 206 186 213 233 197 220 218 250 266 277 249 309 301 272 306 40 311 27 301 336 328 75 87 118 69 84 66 14 273 166 174
306 294 263 259 240 284 275 246 279 10 37 316 179 225 209 182 205 202 228 222 224 221 253 275 31 315 277 262 289 315 275 297 311 328 303 220 156 339 318 145 111 146 184 177 173
323 298 268 196 224 255 255 259 297 19 357 268 268 215 196 186 200 205 205 221 233 233 225 263 209 218 272 317 264 257 5 334 77 30 341 319 44 180 266 63 95 146 172 214 146
298 241 139 197 204 243 245 273 124 73 345 309 333 335 283 179 195 240 235 211 222 252 218 251 271 244 162 223 4 32 287 57 74 281 249 315 33 36 18 76 16 337 171 180 181
262 246 141 181 231 230 246 330 357 304 207 266 303 305 330 341 232 282 179 163 214 226 257 242 289 288 289 216 206 220 336 36 273 313 318 303 328 323 102 72 117 266 213 200 207
251 252 166 202 239 241 202 266 241 261 268 304 267 293 357 314 311 289 89 71 35 357 20 349 260 270 273 269 74 294 287 199 131 84 246 251 350 247 76 42 7 339 316 186 182
276 218 161 211 263 287 291 227 205 198 275 277 298 304 272 267 216 291 271 112 93 43 67 17 300 294 283 303 290 223 261 250 214 193 261 322 323 75 82 93 122 242 273 273 161
253 242 338 194 223 240 275 331 215 203 223 226 269 262 253 282 223 208 278 143 170 133 175 245 279 279 281 281 288 195 258 234 234 234 257 335 341 120 150 182 209 227 302 211 131
291 269 206 285 328 196 147 250 250 233 222 223 247 266 250 270 352 347 11 14 221 161 223 168 273 287 288 287 351 332 320 299 351 357 335 342 333 27 177 149 40 69 324 338 10
249 282 286 219 207 247 218 226 217 269 273 264 285 305 250 6 6 343 323 326 322 338 204 231 260 285 291 340 295 261 244 274 15 354 340 335 3 33 33 62 57 65 38 29 23